Weather History for PAMR - September, 2012

Change the Weather History Date:

Wednesday, September 5, 2012

  Actual Average Record
Temperature  
Mean Temperature 54 °F -  
Max Temperature 57 °F 58 °F 71 °F (1996)
Min Temperature 51 °F 43 °F 37 °F (2004)
Degree Days  
Heating Degree Days 11    
Growing Degree Days 4 (Base 50)    
Moisture  
Dew Point 39 °F    
Average Humidity 57    
Maximum Humidity 86    
Minimum Humidity 44    
Precipitation  
Precipitation 0.17 in - - ()
Sea Level Pressure  
Sea Level Pressure 29.66 in    
Wind  
Wind Speed 14 mph (SSE)    
Max Wind Speed 23 mph    
Max Gust Speed 33 mph    
Visibility 10 miles    
Events Rain    
Averages and records for this station are not official NWS values.
T = Trace of Precipitation, MM = Missing Value Source: NWS Daily Summary

Daily Weather History Graph

Daily Weather History Graph

Search for Another Location

Airport or City:

Trip Planner

Search our weather history database for the weather conditions in past years. The results will help you decide how hot, cold, wet, or windy it might be!

Date:

Astronomy

Sep. 05, 2012 Rise Set
Actual Time 7:02 AM AKDT 8:51 PM AKDT
Civil Twilight 6:16 AM AKDT 9:36 PM AKDT
Nautical Twilight 5:17 AM AKDT 10:35 PM AKDT
Astronomical Twilight 4:02 AM AKDT 11:48 PM AKDT
Moon 9:35 PM AKDT (9/5) 2:05 PM AKDT (9/5)
Length of Visible Light 15h 19m
Length of Day
13h 48m
Waning Gibbous, 75% of the Moon is Illuminated
Sep 5
Waning Gibbous
Sep 8
Last Quarter
Sep 15
New
Sep 22
First Quarter
Sep 29
Full

Hourly Weather History & Observations

Time (AKDT) Temp. Dew Point Humidity Pressure Visibility Wind Dir Wind Speed Gust Speed Precip Events Conditions
12:53 AM 57.2 °F 35.6 °F 44% 29.56 in 10.0 mi SSE 18.4 mph 31.1 mph N/A   Mostly Cloudy
1:53 AM 57.2 °F 35.6 °F 44% 29.55 in 10.0 mi SSE 20.7 mph 29.9 mph N/A   Mostly Cloudy
2:53 AM 57.2 °F 35.6 °F 44% 29.55 in 10.0 mi SE 23.0 mph 33.4 mph N/A   Mostly Cloudy
3:53 AM 57.2 °F 37.4 °F 48% 29.57 in 10.0 mi South 10.4 mph 23.0 mph N/A   Scattered Clouds
4:53 AM 53.6 °F 41.0 °F 62% 29.59 in 10.0 mi SSW 11.5 mph - N/A   Mostly Cloudy
5:53 AM 57.2 °F 35.6 °F 44% 29.57 in 10.0 mi SSE 9.2 mph 17.3 mph N/A   Mostly Cloudy
6:53 AM 57.2 °F 35.6 °F 44% 29.56 in 10.0 mi SSE 10.4 mph 16.1 mph N/A   Mostly Cloudy
8:53 AM 57.0 °F 36.0 °F 45% 29.57 in 10.0 mi SSE 9.2 mph - N/A   Mostly Cloudy
9:53 AM 57.0 °F 37.0 °F 47% 29.58 in 10.0 mi South 5.8 mph - N/A   Overcast
10:53 AM 57.0 °F 37.0 °F 47% - 10.0 mi SE 8.1 mph 23.0 mph N/A   Overcast
11:53 AM 57.0 °F 37.9 °F 49% 29.62 in 10.0 mi SE 12.7 mph 23.0 mph N/A   Overcast
12:53 PM 57.0 °F 39.0 °F 51% 29.63 in 10.0 mi SSE 11.5 mph 23.0 mph N/A   Overcast
1:53 PM 57.9 °F 37.9 °F 47% 29.65 in 10.0 mi South 6.9 mph 18.4 mph N/A   Overcast
2:53 PM 52.0 °F 46.9 °F 83% 29.68 in 10.0 mi SSW 9.2 mph - 0.03 in Rain Light Rain
3:53 PM 53.1 °F 45.0 °F 74% 29.70 in 9.0 mi South 13.8 mph 23.0 mph 0.03 in Rain Light Rain
4:53 PM 51.1 °F 46.9 °F 86% 29.72 in 7.0 mi SSE 6.9 mph - 0.10 in Rain Light Rain
5:53 PM 51.1 °F 46.9 °F 86% 29.72 in 10.0 mi SSE 6.9 mph 17.3 mph 0.01 in   Overcast
6:53 PM 53.1 °F 43.0 °F 69% 29.73 in 10.0 mi SSE 12.7 mph - N/A   Mostly Cloudy
7:53 PM 53.1 °F 39.0 °F 59% 29.76 in 10.0 mi South 9.2 mph 20.7 mph N/A   Mostly Cloudy
8:53 PM 53.1 °F 39.0 °F 59% 29.77 in 10.0 mi South 15.0 mph 25.3 mph N/A   Mostly Cloudy
9:53 PM 53.1 °F 37.9 °F 57% 29.80 in 10.0 mi South 15.0 mph 24.2 mph N/A   Overcast
10:53 PM 53.1 °F 37.9 °F 57% 29.82 in 10.0 mi South 13.8 mph 25.3 mph N/A   Overcast
11:53 PM 52.0 °F 37.9 °F 59% 29.86 in 10.0 mi South 13.8 mph 25.3 mph N/A   Overcast